Погода в Лужбеляке

Россия / Республика Марий Эл     57°00′47″N   48°13′48″E
темп.,
°C
ветер,
м/с
пор.,
м/с
влажн.,
%
обл.,
%
осадки,
мм/ч
давл.,
гПа
погр.,
м
2 декабря, чт
чт200:00−3юз5108522 0.0 991561
03:00−4юз6108477 0.0 993636
06:00−4юз61087100 0.0 993761
09:00−3зюз6108175 0.3 9961013
12:00−4зюз6877100 0.1 998977
15:00−4зюз697965 0.2 1000821
18:00−5зюз61082100 0.0 1002868
21:00−5зюз61181100 0.1 1002790
3 декабря, пт
пт300:00−5юз61079100 0.0 1003743
03:00−5юз5107996 0.0 1003536
06:00−5ююз5109499 0.3 1003518
09:00−4ююз51195100 0.5 1003480
12:00−2ююз5119589 0.6 1004538
15:00−1юз5119889 1.1 1005466
18:000юз41098100 0.2 1007403
21:000ююз51193100 0.2 1008371
4 декабря, сб
сб400:00+1ю51194100 0.0 1008391
03:00+1ю81697100 0.3 1005566
06:00+2ю81796100 0.1 1002645
09:00+3ююз101893100 0.3 1000922
12:00+1ююз91697100 2.4 1001965
15:00+1зюз81278100 2.3 1003945
18:00−1юз71283100 0.1 1005913
21:00−2зюз7117722 0.1 1007930
5 декабря, вс
вс500:00−3зюз6118498 0.0 1008809
03:00−3зюз6118699 0.1 1009806
06:00−3зюз6983100 0.1 1010947
09:00−3з6986100 0.2 1012981
12:00−4зсз6984100 0.2 10141024
15:00−7зсз6107996 0.3 1017757
18:00−9сз6873100 0.0 1020739
21:00−11сз467176 0.0 1021646
6 декабря, пн
пн600:00−11сз467298 0.0 1023656
03:00−12ссз457387 0.0 1025596
06:00−13ссз457486 0.0 1027541
09:00−14с347572 0.0 1029474
12:00−14ссв34716 0.0 1031472
15:00−14ссв337211 0.0 1033412
18:00−14всв347529 0.0 1034341
21:00−13в35776 0.0 1034282